Regional Weather Roundup
Issued by NWS

Home | Current Version | Previous Version | Graphics & Text | Print | Product List | Glossary On
Versions: 1 2 3 4 5 6 7 8 9 10 11 12 13 14 15 16 17 18 19 20 21 22 23 24 25 26 27 28 29 30 31 32 33 34 35 36 37 38 39 40 41 42 43 44 45 46 47 48 49 50
000
ASUS44 KMEG 161610
RWRTN
TENNESSEE HOURLY STATE WEATHER ROUNDUP
NATIONAL WEATHER SERVICE MEMPHIS TN
1100 AM CDT WED AUG 16 2017

TNZ002-004-019-021-049-052-054-088>092-161700-
WEST TENNESSEE

CITY           SKY/WX    TMP DP  RH WIND       PRES   REMARKS
MEMPHIS INTL   CLOUDY    80  76  87 S10       30.04R
NWS MEMPHIS      N/A     81 N/A N/A MISG        N/A
JACKSON        CLOUDY    82  77  84 SW9       30.05R HX  90
DYERSBURG      CLOUDY    82  77  84 S8        30.03S HX  90
COVINGTON      CLOUDY    82  77  83 S8        30.03S HX  91
UNION CITY     PTSUNNY   84  77  79 S10       30.01S HX  94
PARIS          PTSUNNY   84  77  79 S9        30.03S HX  94
LEXINGTON      CLOUDY    81  75  83 S7        30.06S
SELMER         CLOUDY    81  75  83 SW6       30.06S
SAVANNAH       PTSUNNY   82  75  78 SW5       30.06R
$$

TNZ008-025-027-028-033-062-065-066-161700-
NORTH MIDDLE TENNESSEE

CITY           SKY/WX    TMP DP  RH WIND       PRES   REMARKS
NASHVILLE      PTSUNNY   82  75  79 VRB3      30.08S
PORTLAND       CLOUDY    81  73  78 S8        30.07S
CLARKSVILLE    PTSUNNY   85  76  74 VRB3      30.05R HX  94
SMYRNA         PTSUNNY   82  75  78 SE7       30.09S
COOKEVILLE     MOSUNNY   79  73  83 CALM      30.11R
GALLATIN       CLOUDY    73  73 100 CALM      30.10S FOG
CROSSVILLE     LGT RAIN  73  71  93 CALM      30.16R
$$

TNZ061-075-076-078-094-096-097-161700-
SOUTH MIDDLE TENNESSEE

CITY           SKY/WX    TMP DP  RH WIND       PRES   REMARKS
FAYETTEVILLE   CLOUDY    79  73  83 CALM      30.11R
TULLAHOMA      CLOUDY    77  72  83 VRB5      30.12S
WINCHESTER     PTSUNNY   81  73  78 NW6       30.11S
MCMINNVILLE    MOSUNNY   81  79  94 VRB3      30.11S
COLUMBIA       PTSUNNY   82  77  83 S6        30.06S HX  91
SHELBYVILLE    CLOUDY    82  75  78 S7G14     30.09F
$$

TNZ017-018-042-046-047-161700-
NORTHEAST TENNESSEE

CITY           SKY/WX    TMP DP  RH WIND       PRES   REMARKS
TRI CITIES     MOSUNNY   81  72  74 CALM      30.13S
ELIZABETHTON   PTSUNNY   81  72  74 CALM      30.13S
$$

TNZ012-013-036-069-073-074-161700-
CENTRAL EAST TENNESSEE

CITY           SKY/WX    TMP DP  RH WIND       PRES   REMARKS
KNOXVILLE      PTSUNNY   83  72  69 SW7       30.08F
DOWNTOWN KNOXV PTSUNNY   82  75  78 CALM      30.08F
GATLINBURG     MOSUNNY   84  72  65 VRB3      30.09S
MORRISTOWN     CLOUDY    81  73  78 NW6       30.10S
JACKSBORO      PTSUNNY   82  73  74 SW5       30.13S
$$

TNZ083-085-099-161700-
SOUTHEAST TENNESSEE

CITY           SKY/WX    TMP DP  RH WIND       PRES   REMARKS
CHATTANOOGA    MOSUNNY   85  73  67 CALM      30.08F HX  91
DAYTON         SUNNY     84  75  74 CALM      30.07F HX  92
$$

SKY/WX REPORTED AS FAIR MEANS FEW OR NO CLOUDS BELOW
12 THOUSAND FEET.





USA.gov is the U.S. government's official web portal to all federal, state and local government web resources and services.